ANIK F2

Last updated on Nov. 17, 2019, 4:19 a.m. UTC

1 28378U 04027A   19320.47175522 -.00000040  00000-0  00000+0 0  9993
2 28378   0.0146   8.2080 0000241 313.0018 152.8271  1.00269382 56246
UTC
Height (km)
Latitude
Longitude
Inclination
Orbital Period
UTC large
Height (km)
Speed (km/s)
/
Latitude / Longitude
Inclination (degrees)
Orbital Period (minutes)
Azimuth
Elevation
Range (km)
Doppler Factor
iOS Compass Heading
iOS Angle

Next 30 passes for location: Hong Kong

Rise time Rise Azimuth (degrees) Set time Set Azimuth (degrees) Duration Max altitude (degrees)

No matching passes for this satellites